Location: Buckenweiler
(49.0667°N, 10.2500°E)
Time: 11:54:45
(UTC+00:00)

Okean 3 - Pass Details

Date: 18 January 2026
Orbit: 542 x 564 km, 82.5° (Epoch: 16 February)

Event Time Altitude Azimuth Distance (km) Brightness Sun altitude
Exits shadow 05:25:59 25° 247° (WSW) 1,135 4.5 -15.9°
Drops below altitude 10° 05:28:27 10° 212° (SSW) 1,803 5.8 -15.5°
Sets 05:30:49 0° 200° (SSW) 2,690 6.8 -15.1°
